Location: Aydie
(43.5695°N, 0.1043°W)
Time: 08:07:37
(UTC+00:00)

Cosmos 1656 Rocket - Pass Details

Date: 17 November 2025
Orbit: 791 x 846 km, 71.1° (Epoch: 13 December)

Event Time Altitude Azimuth Distance (km) Brightness Sun altitude
Rises 18:19:59 0° 185° (S) 3,319 7.0 -19.2°
Reaches altitude 10° 18:22:27 10° 179° (S) 2,400 6.1 -19.6°
Maximum altitude 18:27:40 46° 107° (ESE) 1,101 3.9 -20.6°
Enters shadow 18:28:36 42° 79° (E) 1,168 3.9 -20.8°
